[[{"header":{"parameterUnit":"m.s-1","parameterCategory":1,"la1":30.2991,"la2":30.254,"lo1":-89.0895,"lo2":-89.0444,"dy":0.0017,"dx":0.0017,"nx":28,"ny":28,"refTime":"2025-08-14T09:00:00:Z","depth":0,"parameterNumber":2,"parameterNumberName":"U-component_of_WINDS"},"data":[0,0,0,0,0,0,0,0,0,0,0,0,0,0,0,0,0,0,0,0,0,0,0,0,0,0,0,0,0,0,0,0,0,0,0,0,0,0,0,0,0,0,0,0,0,0,0,0,0,0,0,0,0,0,0,0,0,0,4.2185,4.2186,0,4.2285,4.2286,4.2287,4.2226,4.2223,4.222,4.2217,4.2317,4.2322,4.2327,0,0,0,0,0,0,0,0,0,0,0,0,0,4.1936,4.1941,4.2185,4.2186,4.2188,4.2285,4.2286,4.2288,4.2226,4.2223,4.2219,4.2216,4.2315,4.2321,4.2328,0,0,0,0,0,0,0,0,0,0,0,0,0,4.2041,4.1942,4.2185,4.2169,4.2168,4.2285,4.2286,4.2288,4.2227,4.2223,4.2218,4.2214,4.2313,4.2321,4.2329,4.2466,0,0,4.2353,4.2357,0,0,0,0,0,0,0,0,4.2035,4.205,4.217,4.217,4.217,4.2239,4.2235,4.2347,4.2228,4.2205,4.2217,4.2212,4.2294,4.2303,4.2332,4.247,4.2474,4.2354,4.2359,4.2362,4.2365,0,0,0,0,0,0,0,4.2028,4.2045,4.2224,4.2172,4.2172,4.2155,4.2165,4.2256,4.2273,4.2206,4.2202,4.2215,4.2293,4.2324,4.2334,4.2476,4.2354,4.2361,4.2366,4.2369,4.2726,4.2731,0,0,0,0,0,0,4.2022,4.2039,4.2221,4.2227,4.209,4.2163,4.2174,4.2221,4.2271,4.2275,4.2219,4.2212,4.2313,4.2324,4.2337,4.2497,4.2362,4.237,4.2374,4.2722,4.2727,4.2732,0,0,0,0,0,0,4.2017,4.2039,4.2217,4.2132,4.2154,4.2172,4.2225,4.2225,4.2256,4.2281,4.2283,4.2247,4.231,4.2326,4.2433,4.2499,4.2373,4.2381,4.2716,4.2723,4.273,4.282,0,0,0,0,0,0,4.201,4.2037,4.2091,4.2134,4.2159,4.2314,4.2229,4.223,4.227,4.2262,4.2308,4.2312,4.2307,4.2421,4.2441,4.2508,4.2387,4.271,4.2719,4.2728,4.2811,4.2829,4.2844,0,0,0,0,0,4.2001,4.2113,4.2094,4.2117,4.2226,4.2318,4.2332,4.2325,4.2276,4.2329,4.2344,4.231,4.2489,4.2433,4.2455,4.2525,4.2706,4.2717,4.2727,4.2803,4.2825,4.2844,0,0,0,0,0,0,4.2077,4.2118,4.2098,4.2227,4.227,4.2307,4.2374,4.2349,4.2406,4.2396,4.2385,4.2395,4.2507,4.2527,4.2463,4.2657,4.2589,4.2605,4.264,4.2661,4.2678,4.2669,4.2394,0,0,0,0,0,4.2109,4.2182,4.2213,4.2324,4.2346,4.2356,4.2396,4.2387,4.243,4.2447,4.2471,4.2513,4.2577,4.2621,4.2683,4.2814,4.282,4.2872,4.2889,4.2903,4.2915,4.2982,4.3004,4.2767,4.2767,4.2766,0,0,4.2176,4.2207,4.2253,4.234,4.2371,4.2444,4.2372,4.2453,4.2506,4.2459,4.2561,4.258,4.2625,4.2744,4.2798,4.2764,4.2982,4.2916,4.2927,4.2932,4.2995,4.3017,4.3037,4.2774,4.2773,4.2771,0,0,4.2333,4.2366,4.2459,4.2492,4.2541,4.2546,4.2569,4.261,4.262,4.2723,4.2688,4.275,4.2864,4.2896,4.2928,4.3094,4.3064,4.3115,4.3201,4.3266,4.3284,4.3301,4.3356,4.3377,4.3127,4.3128,4.3128,0,4.2409,4.2519,4.2511,4.2593,4.263,4.2592,4.2684,4.2716,4.2783,4.2808,4.277,4.2909,4.2938,4.3061,4.3101,4.3129,4.3152,4.3108,4.3283,4.3299,4.3314,4.3367,4.3388,4.3133,4.3133,4.3132,4.3132,0,4.2607,4.2684,4.2753,4.2817,4.2863,4.2951,4.2953,4.3,4.2986,4.2995,4.3097,4.313,4.3195,4.3224,4.3213,4.3345,4.3322,4.3284,4.3215,4.3343,4.3392,4.3412,4.3141,4.3139,4.3138,4.3136,0,0,4.2816,4.2873,4.2898,4.2925,4.2974,4.3032,4.3116,4.3181,4.3219,4.3265,4.3333,4.3428,4.3392,4.3428,4.3419,4.3476,4.36,4.343,4.3431,4.3458,4.3744,4.377,4.3794,4.3581,4.3585,4.3588,4.3739,0,4.2974,4.3122,4.3115,4.3252,4.332,4.3283,4.3355,4.3392,4.3402,4.346,4.347,4.3536,4.3485,4.3506,4.3561,4.3574,4.3657,4.3563,4.3641,4.3644,4.3628,4.382,4.385,4.399,4.3758,4.3762,4.3764,0,4.3178,4.323,4.3374,4.3409,4.3438,4.3503,4.3559,4.3616,4.3655,4.3658,4.3696,4.3677,4.3759,4.369,4.38,4.3736,4.3768,4.3778,4.3783,4.3788,4.371,4.3827,4.4035,4.4055,4.3795,4.3792,4.379,0,4.3311,4.3418,4.3516,4.3541,4.3586,4.3632,4.3652,4.3688,4.3725,4.3774,4.3798,4.3856,4.3886,4.393,4.3926,4.3876,4.4037,4.3968,4.4039,4.4039,4.4073,4.407,4.4286,4.4098,4.4098,4.4098,4.4097,0,4.3486,4.3575,4.3576,4.3637,4.3733,4.3724,4.3819,4.3835,4.3866,4.3926,4.3898,4.3955,4.3948,4.4004,4.4001,4.4091,4.4106,4.4108,4.4106,4.411,4.4109,4.4128,4.4117,4.4103,4.4102,4.4101,4.41,0,4.3651,4.3656,4.376,4.3794,4.3804,4.3873,4.3901,4.3956,4.3963,4.404,4.4057,4.4067,4.4132,4.4132,4.4207,4.4205,4.4313,4.4302,4.43,4.4297,4.4366,4.4358,4.4599,4.4629,4.4425,4.4427,4.4429,0,4.3762,4.3828,4.3868,4.3907,4.393,4.3994,4.4031,4.4024,4.4064,4.4111,4.416,4.4223,4.4272,4.4377,4.4389,4.4445,4.4432,4.4513,4.444,4.444,4.4429,4.4424,4.4429,4.4526,4.4528,4.453,4.4532,0,4.3955,4.3954,4.401,4.4066,4.4112,4.4155,4.4196,4.4229,4.4225,4.4271,4.4337,4.4375,4.445,4.451,4.4563,4.4582,4.4555,4.4555,4.4573,4.4576,4.4571,4.4571,4.4335,4.4549,4.4547,4.4546,4.4545,4.4544,4.4094,4.415,4.4186,4.4248,4.4277,4.4315,4.4368,4.438,4.4435,4.4496,4.4487,4.456,4.4593,4.4662,4.4685,4.474,4.4711,4.474,4.4746,4.4753,4.4758,4.4565,4.475,4.4749,4.4749,4.4749,4.4748,0,4.4283,4.4304,4.4361,4.4418,4.4466,4.4438,4.448,4.4521,4.4585,4.462,4.4668,4.4741,4.4799,4.4816,4.4871,4.4911,4.49,4.4926,4.4921,4.4925,4.4783,4.4759,4.4933,4.4933,4.4933,4.4933,4.4933,4.4933,4.4387,4.4479,4.4481,4.4586,4.4606,4.4677,4.4703,4.4736,4.4762,4.4846,4.4894,4.4904,4.493,4.4986,4.5037,4.504,4.506,4.509,4.5088,4.4954,4.4936,4.4918,4.4896,4.5096,4.5096,4.5225,4.5227,4.5228]},{"header":{"parameterUnit":"m.s-1","parameterCategory":1,"la1":30.2991,"la2":30.254,"lo1":-89.0895,"lo2":-89.0444,"dy":0.0017,"dx":0.0017,"nx":28,"ny":28,"refTime":"2025-08-14T09:00:00:Z","depth":0,"parameterNumber":3,"parameterNumberName":"V-component_of_WINDS"},"data":[0,0,0,0,0,0,0,0,0,0,0,0,0,0,0,0,0,0,0,0,0,0,0,0,0,0,0,0,0,0,0,0,0,0,0,0,0,0,0,0,0,0,0,0,0,0,0,0,0,0,0,0,0,0,0,0,0,0,3.0256,3.0258,0,3.0422,3.0424,3.0426,3.0435,3.0433,3.0431,3.043,3.0596,3.0602,3.0608,0,0,0,0,0,0,0,0,0,0,0,0,0,2.994,2.9946,3.0256,3.0258,3.026,3.0422,3.0424,3.0427,3.0436,3.0433,3.0431,3.0429,3.0594,3.0601,3.0609,0,0,0,0,0,0,0,0,0,0,0,0,0,3.0089,2.9947,3.0256,3.0284,3.0288,3.0422,3.0424,3.0427,3.0436,3.0433,3.043,3.0428,3.0591,3.06,3.061,3.0724,0,0,3.0638,3.0642,0,0,0,0,0,0,0,0,3.008,3.01,3.0278,3.0283,3.0288,3.0405,3.0374,3.0527,3.0437,3.038,3.043,3.0426,3.0534,3.0548,3.0586,3.0732,3.0739,3.0639,3.0644,3.0648,3.0651,0,0,0,0,0,0,0,3.007,3.0093,3.0322,3.028,3.0286,3.0287,3.0305,3.0403,3.0471,3.0385,3.0386,3.0406,3.0536,3.0577,3.059,3.0742,3.0639,3.0647,3.0653,3.0656,3.0986,3.0989,0,0,0,0,0,0,3.0055,3.0084,3.0316,3.0327,3.0175,3.0295,3.0315,3.037,3.047,3.0483,3.0408,3.0405,3.0562,3.0579,3.0595,3.0734,3.0648,3.0657,3.0662,3.0983,3.0987,3.099,0,0,0,0,0,0,3.0048,3.0075,3.031,3.0206,3.0236,3.0303,3.0365,3.0375,3.0415,3.0488,3.0499,3.0437,3.0561,3.0582,3.0691,3.074,3.0661,3.067,3.0979,3.0984,3.0988,3.1013,0,0,0,0,0,0,3.0039,3.0073,3.0119,3.0207,3.0241,3.0405,3.0368,3.038,3.0432,3.043,3.0518,3.0529,3.056,3.0678,3.0701,3.0751,3.0677,3.0975,3.0981,3.0987,3.1008,3.1018,3.1026,0,0,0,0,0,3.0027,3.0119,3.0121,3.0149,3.0301,3.0408,3.0427,3.0462,3.0436,3.0481,3.0527,3.0527,3.0731,3.0689,3.0715,3.0769,3.0972,3.0979,3.0986,3.1004,3.1016,3.1026,0,0,0,0,0,0,3.0034,3.0131,3.0135,3.0258,3.0325,3.0409,3.0468,3.0474,3.0549,3.0544,3.0582,3.0601,3.0709,3.075,3.0701,3.0883,3.0848,3.0861,3.0852,3.0864,3.0873,3.0861,3.0685,0,0,0,0,0,3.005,3.0131,3.0211,3.0312,3.0345,3.0401,3.0449,3.0469,3.0539,3.0567,3.0621,3.0688,3.0766,3.0818,3.0895,3.1014,3.1031,3.1063,3.1072,3.1079,3.109,3.1152,3.1166,3.1013,3.1013,3.1013,0,0,3.0084,3.0147,3.0196,3.0315,3.0369,3.0449,3.0424,3.0512,3.0571,3.058,3.0686,3.0728,3.0804,3.0918,3.0971,3.0955,3.1136,3.1088,3.1094,3.11,3.1161,3.1175,3.1188,3.1018,3.1017,3.1017,0,0,3.0186,3.0243,3.0332,3.0386,3.0469,3.0505,3.0526,3.0609,3.0637,3.0745,3.0752,3.0822,3.0958,3.1011,3.1056,3.1174,3.1176,3.1198,3.1246,3.1306,3.1318,3.1329,3.1369,3.1383,3.1208,3.1208,3.1208,0,3.0217,3.0341,3.0377,3.0463,3.0514,3.0526,3.0615,3.0665,3.0768,3.0801,3.0783,3.0951,3.1004,3.1128,3.1157,3.1194,3.1217,3.1188,3.1314,3.1325,3.1336,3.1374,3.1389,3.121,3.121,3.121,3.121,0,3.0374,3.0459,3.052,3.0619,3.0677,3.0764,3.081,3.0864,3.0878,3.0915,3.1022,3.1085,3.1173,3.1204,3.122,3.133,3.1318,3.1306,3.1272,3.1352,3.1388,3.1403,3.1213,3.1213,3.1212,3.1211,0,0,3.0487,3.0602,3.0624,3.0668,3.0758,3.0824,3.0909,3.0996,3.104,3.1109,3.1181,3.1294,3.1282,3.1333,3.1354,3.1407,3.1493,3.1389,3.1391,3.1404,3.1616,3.1623,3.164,3.1495,3.1498,3.15,3.1609,0,3.0597,3.0753,3.0785,3.0918,3.0995,3.1007,3.1081,3.1142,3.1178,3.1247,3.1286,3.1365,3.1346,3.1376,3.1429,3.1472,3.1536,3.1465,3.1559,3.1562,3.1539,3.166,3.1669,3.1768,3.1624,3.1626,3.1628,0,3.0748,3.0821,3.0962,3.1039,3.1072,3.1139,3.1219,3.1286,3.1355,3.1377,3.1432,3.1446,3.1533,3.1494,3.1612,3.1563,3.1603,3.1629,3.1634,3.1643,3.1599,3.1671,3.1801,3.1815,3.1651,3.1649,3.1648,0,3.0814,3.0947,3.1048,3.1085,3.1178,3.1224,3.1264,3.133,3.1379,3.1449,3.148,3.1559,3.1601,3.166,3.1694,3.1664,3.1809,3.1774,3.1827,3.1826,3.1857,3.1855,3.1994,3.1885,3.1885,3.1884,3.1884,0,3.0933,3.1018,3.1078,3.114,3.1234,3.1269,3.1361,3.1401,3.1459,3.1527,3.1541,3.1603,3.1645,3.1712,3.1739,3.1831,3.1851,3.1869,3.1875,3.1867,3.1865,3.1894,3.1887,3.1888,3.1887,3.1887,3.1886,0,3.1023,3.1067,3.1177,3.1255,3.1276,3.1342,3.1408,3.1467,3.1502,3.1587,3.1609,3.1663,3.1743,3.1783,3.1882,3.19,3.2003,3.2005,3.198,3.1983,3.2033,3.2027,3.2196,3.2218,3.2095,3.2096,3.2097,0,3.1096,3.1162,3.1247,3.1293,3.1335,3.141,3.146,3.1496,3.1547,3.1628,3.1676,3.1757,3.1824,3.1951,3.1998,3.2073,3.2076,3.213,3.2087,3.2077,3.2075,3.207,3.2075,3.2137,3.2138,3.2139,3.214,0,3.1221,3.1238,3.131,3.1389,3.1449,3.1512,3.1575,3.1612,3.1657,3.1713,3.1795,3.1847,3.1948,3.2027,3.2105,3.2144,3.2149,3.2153,3.2169,3.2162,3.2144,3.2152,3.2,3.2149,3.2148,3.2147,3.2147,3.2147,3.1303,3.1361,3.1429,3.1508,3.1558,3.1616,3.1674,3.1716,3.1786,3.1871,3.1888,3.1974,3.2037,3.2143,3.2184,3.225,3.2238,3.2262,3.2268,3.2273,3.2275,3.2133,3.2265,3.2265,3.2264,3.2264,3.2264,0,3.1427,3.1471,3.1543,3.163,3.1691,3.1691,3.1759,3.181,3.1886,3.1945,3.201,3.2103,3.2179,3.2231,3.2307,3.235,3.2354,3.2368,3.2365,3.2374,3.2282,3.226,3.2364,3.2364,3.2364,3.2364,3.2364,3.2364,3.1498,3.1595,3.162,3.174,3.1783,3.1869,3.1908,3.1959,3.2007,3.211,3.2173,3.2207,3.2262,3.2342,3.2411,3.2424,3.245,3.2465,3.2477,3.2391,3.238,3.237,3.235,3.2471,3.2471,3.2563,3.2564,3.2565]}]]